Temperature
16 16 16 17 17 17 18 20 21 21 21 20 20 20 20 19 18 16 14 14 14 14 14 14 14 14 14 14 14 14 14 14 14 14 14 14 14 14 14 14 14 14 14 14 14 14 14 14 14
16 16 16 17 16 17 18 20 20 20 20 19 19 19 19 17 16 15 14 14 14 14 14 14 14 14 14 14 14 14 14 14 14 14 14 14 14 14 14 14 14 14 14 14 14 14 14 14 14
15 15 16 16 17 17 19 20 19 19 19 19 18 18 18 16 15 14 14 14 13 13 13 14 14 14 14 14 14 14 14 14 14 14 14 14 14 14 14 14 14 14 14 14 14 14 14 14 14
15 15 16 16 17 18 19 19 19 19 18 18 18 17 15 14 14 14 14 14 13 13 13 13 13 13 13 13 13 13 14 14 14 14 14 14 14 14 14 14 14 14 14 14 14 14 14 14 14
14 16 15 16 16 18 18 19 19 19 18 18 17 17 14 13 13 14 13 13 13 12 12 13 13 13 13 13 13 13 13 13 13 13 13 13 13 13 14 13 13 13 13 13 13 14 14 14 13
15 16 15 15 17 18 18 19 19 18 18 17 17 16 13 13 13 13 13 13 12 12 12 12 12 12 12 13 13 13 13 13 13 13 13 13 13 13 13 13 13 13 13 13 13 13 13 13 13
15 15 15 16 17 17 17 18 18 17 17 16 16 15 13 12 13 13 12 12 12 12 12 12 12 12 12 12 12 12 13 13 13 13 13 13 13 13 13 13 13 13 13 13 13 13 13 13 13
14 14 15 16 16 16 17 17 17 16 16 15 15 15 12 11 12 12 12 11 11 11 11 11 11 11 11 12 12 12 12 12 12 12 12 12 12 12 13 13 13 13 13 12 12 12 12 12 12
14 13 14 15 16 16 16 16 15 15 15 14 13 12 11 12 11 11 11 11 11 11 11 11 11 11 11 11 11 11 12 12 12 12 12 12 12 12 12 12 12 12 12 12 12 12 12 12 12
13 12 13 14 15 15 15 15 14 14 13 12 11 11 11 11 11 11 10 10 10 10 10 10 11 11 11 11 11 11 11 11 12 12 12 12 12 12 12 12 11 12 12 12 12 12 12 11 11
13 12 13 13 14 14 14 14 14 13 12 11 11 10 10 10 10 10 10 10 10 10 10 10 10 10 10 10 11 11 11 11 11 11 11 11 11 11 11 11 11 11 11 11 11 11 11 11 11
12 12 13 12 12 12 12 12 12 11 11 11 11 10 10 10 10 10 9 9 9 9 9 9 9 10 10 10 10 10 10 10 11 11 11 11 11 11 11 11 11 11 11 11 11 11 11 11 10
12 11 12 11 11 11 11 11 10 10 10 10 10 10 10 9 9 9 9 9 8 9 9 9 9 9 9 9 9 10 10 10 10 10 10 10 10 10 11 11 11 11 10 10 10 10 10 10 10
11 11 11 11 10 10 10 10 9 9 9 9 9 9 9 9 9 8 8 8 8 8 8 8 8 8 8 9 9 9 9 9 10 10 10 10 10 10 10 10 10 10 10 10 10 10 10 10 10
10 10 10 10 10 10 10 9 8 9 9 8 8 8 8 8 8 8 8 8 8 8 8 8 8 8 8 8 8 8 9 9 9 9 10 9 10 10 10 10 10 10 10 9 9 9 9 9 9
10 9 9 9 10 10 9 8 8 9 8 8 7 7 7 7 7 7 7 7 7 7 7 7 7 7 7 7 8 8 8 8 8 9 9 9 9 9 9 9 9 9 9 9 9 9 9 9 9
9 8 9 9 10 9 8 7 8 8 8 7 7 7 7 7 6 6 6 6 7 7 7 7 7 7 7 7 7 7 7 7 7 8 8 8 9 9 9 9 9 9 9 9 9 8 8 8 8
8 8 9 9 9 9 7 7 7 8 8 7 7 7 6 6 6 6 6 6 6 6 6 6 6 6 6 6 6 6 7 7 7 7 7 8 8 8 8 8 8 8 8 8 8 8 8 8 8
8 8 8 8 8 7 6 6 7 7 7 6 6 6 6 6 6 5 5 5 5 5 5 5 6 6 6 5 6 6 6 6 6 6 6 7 7 8 8 8 8 8 8 8 8 8 7 7 7
7 7 6 7 7 7 6 6 6 6 6 6 6 6 5 5 5 4 4 4 4 5 5 5 5 5 5 5 6 5 5 6 6 6 6 6 6 7 7 7 7 7 7 7 7 7 7 7 7
6 6 6 6 6 6 5 5 5 6 6 6 5 5 5 4 4 4 4 3 3 4 4 4 4 5 5 5 5 5 5 5 5 5 5 6 6 6 6 6 7 7 7 7 7 7 7 7 6
5 5 5 5 4 4 5 3 5 4 4 4 4 4 4 4 3 3 3 3 2 3 3 3 4 4 4 4 4 5 5 5 5 5 5 5 5 5 6 6 6 6 6 6 6 6 6 6 6
4 5 5 4 4 3 4 3 3 4 3 3 3 3 2 2 2 2 2 2 2 2 2 2 3 3 3 4 4 4 4 4 4 4 4 4 5 5 5 5 5 6 6 6 6 6 6 6 6
4 4 4 4 3 2 3 3 3 3 3 3 2 2 2 2 2 1 1 1 1 1 1 2 2 2 3 3 3 3 3 3 3 3 4 4 4 4 4 5 5 5 5 5 5 5 5 5 5
3 2 2 2 2 2 4 3 2 2 2 2 1 1 1 1 1 1 0 0 0 1 1 1 1 1 2 2 2 2 2 3 3 3 3 3 3 3 4 4 4 4 4 4 4 4 4 4 4
2 2 1 1 2 3 2 2 1 1 1 1 1 1 1 1 0 0 0 -0 -0 0 0 0 1 1 1 1 1 2 2 2 2 2 2 3 3 3 3 3 3 4 4 4 4 4 4 4 4
1 1 2 1 1 1 2 2 1 1 1 1 0 0 -0 -0 -0 -0 -0 -0 -0 -0 -0 -0 0 0 1 1 1 1 1 1 1 1 2 2 2 2 2 2 2 3 3 3 3 3 3 3 3
1 1 0 0 1 1 2 2 1 0 0 -0 -1 -1 -1 -1 -1 -1 -1 -1 -1 -1 -1 -1 -1 -0 -0 0 0 0 0 0 0 1 1 1 1 2 2 2 2 2 2 2 2 3 3 2 3
-0 0 -0 0 0 0 1 1 0 -0 -1 -1 -2 -2 -2 -2 -2 -2 -2 -2 -2 -2 -2 -1 -1 -1 -1 -1 -1 -1 -0 -0 -0 -0 -0 0 0 1 1 1 2 2 2 2 2 2 2 2 2
-0 -1 -1 -1 -1 -0 -0 -1 -1 -1 -1 -2 -2 -2 -2 -2 -2 -2 -2 -2 -2 -2 -2 -2 -2 -2 -2 -2 -1 -1 -1 -1 -1 -1 -1 -0 -0 0 0 1 1 1 1 1 1 2 2 2 2
Wind_Speed
12 11 6 2 3 5 9 6 4 1 1 2 4 3 2 3 3 5 3 5 7 9 10 10 10 11 11 11 11 11 11 11 11 11 11 12 13 13 13 13 13 14 14 15 16 16 16 16 16
10 6 3 3 4 8 7 6 5 2 1 2 3 3 2 4 5 7 4 4 6 8 10 10 10 11 11 11 11 11 11 11 11 11 11 11 12 12 13 13 13 14 14 15 15 16 16 16 15
7 5 3 3 6 9 6 2 3 3 3 2 2 2 1 3 4 4 4 3 5 7 10 10 11 11 11 11 11 11 11 11 11 11 11 11 12 12 12 13 13 14 14 15 15 15 15 15 15
3 3 4 6 12 9 6 3 1 3 3 2 2 2 3 6 4 5 5 4 5 6 9 10 11 10 11 11 11 11 11 11 10 10 10 11 11 12 12 12 13 13 14 14 15 15 14 14 14
3 3 6 9 13 8 4 3 3 2 3 3 2 1 4 5 8 7 5 4 5 5 9 9 10 10 10 11 11 11 11 11 10 10 10 10 11 12 12 12 13 13 13 14 14 14 14 14 13
3 4 6 11 12 7 5 5 4 2 1 2 3 2 3 5 6 5 4 3 4 6 8 9 9 9 10 10 10 10 10 10 10 10 10 10 11 11 12 12 12 13 13 13 14 14 14 13 13
4 4 9 11 9 7 5 4 4 2 2 1 1 3 5 4 4 5 4 4 5 6 7 7 7 8 9 9 10 10 10 10 10 10 10 10 10 10 11 12 12 12 13 13 13 13 13 13 12
4 4 9 11 10 7 3 3 3 2 2 1 1 1 3 3 4 5 4 4 4 5 6 5 5 7 7 8 9 10 10 10 10 9 10 10 10 10 11 11 12 12 12 13 13 13 12 12 11
4 5 9 8 7 4 2 3 1 1 1 1 3 5 5 8 6 6 4 3 3 4 4 4 4 5 6 8 8 9 10 9 9 8 9 8 8 9 9 10 11 12 12 12 12 12 11 10 10
4 7 9 5 5 3 3 3 2 2 1 1 2 5 7 7 6 6 5 4 4 3 3 3 3 4 5 6 7 7 7 7 7 7 6 6 7 8 9 10 11 12 12 12 11 10 9 7 7
4 6 5 5 4 3 4 4 2 2 3 2 2 3 5 5 5 4 4 4 4 4 3 3 3 4 5 4 5 5 5 6 6 6 6 6 8 8 8 8 9 10 10 8 8 8 7 8 8
7 6 5 5 5 4 3 4 4 2 1 2 1 4 5 6 5 5 4 3 4 4 3 2 3 4 5 5 4 5 5 5 5 5 6 6 5 5 6 6 7 7 7 6 6 6 8 8 8
10 8 6 4 4 4 3 3 3 3 1 2 2 3 5 4 4 3 2 3 4 4 3 3 3 4 4 4 4 5 5 5 6 6 6 5 4 4 5 6 6 6 6 6 5 6 7 7 8
4 4 5 6 6 5 5 5 5 4 2 1 1 2 4 4 3 3 2 2 3 3 3 3 3 4 4 4 4 4 5 5 6 6 6 6 5 5 5 5 5 5 6 6 6 6 7 7 8
4 5 6 7 7 4 4 7 9 5 3 3 3 2 3 3 3 3 3 3 3 3 4 4 4 4 4 4 4 5 5 5 5 5 5 5 5 6 5 5 4 5 7 7 6 6 7 6 7
6 6 6 5 7 6 5 10 4 4 4 5 4 3 3 3 3 3 3 2 2 3 4 4 4 4 4 4 4 5 5 5 4 4 5 5 5 6 6 5 3 6 7 6 5 4 4 5 5
5 7 8 5 5 5 7 8 3 4 5 5 5 4 3 3 3 3 3 3 3 4 4 4 4 4 4 4 5 5 6 5 5 5 5 5 5 5 6 5 4 6 6 5 4 4 4 5 5
5 7 8 7 3 4 7 9 4 3 4 4 4 4 4 3 3 2 2 3 3 4 4 5 5 5 4 4 4 4 5 4 5 4 4 5 5 5 6 5 4 5 5 4 4 5 4 5 5
9 8 9 8 4 5 7 9 7 4 4 4 4 3 3 2 2 2 2 3 3 3 4 4 5 5 4 4 4 3 3 3 3 3 4 5 6 6 5 4 4 5 4 4 5 5 6 4 4
8 9 9 7 4 4 7 9 7 6 5 4 3 2 1 0 1 1 2 2 3 3 4 4 4 4 4 4 4 3 3 2 3 3 3 4 5 6 5 5 3 4 4 5 5 6 4 3 3
8 7 8 8 6 5 6 8 7 4 3 2 2 1 0 0 0 1 2 1 2 2 3 4 4 4 4 4 3 4 3 2 2 2 2 3 4 5 5 5 4 4 5 5 5 5 5 4 1
7 6 7 7 5 4 3 5 5 3 3 2 2 1 1 1 1 1 1 1 1 1 2 3 3 4 4 5 5 6 5 4 3 3 3 3 4 5 5 5 5 5 5 4 4 4 4 5 3
5 8 8 8 7 6 6 5 5 2 4 4 2 1 1 2 2 2 2 1 1 1 1 2 2 3 4 4 5 5 4 3 3 3 4 3 3 4 4 5 5 5 4 5 4 3 4 4 4
6 6 6 6 4 7 7 6 5 3 3 2 1 0 1 1 2 2 1 1 1 1 1 2 3 2 3 4 5 5 5 4 5 4 4 3 2 2 3 4 5 5 4 5 5 4 4 3 3
5 3 2 2 4 5 2 4 4 0 1 0 1 0 1 1 2 2 2 1 1 1 0 1 3 2 3 4 5 5 5 5 5 5 5 4 2 2 2 3 4 4 4 5 5 5 4 4 4
3 1 2 3 4 4 3 4 2 2 2 3 3 2 2 2 2 2 1 1 0 0 0 1 2 2 2 3 3 4 5 4 4 4 4 4 3 3 3 4 4 4 4 4 5 4 4 4 3
2 2 2 3 5 5 4 3 2 1 2 4 4 4 4 4 3 2 2 2 1 0 0 1 2 2 2 2 2 3 4 4 4 4 3 3 2 3 4 4 4 4 4 4 4 4 4 4 3
3 2 1 2 3 5 5 4 2 1 1 3 4 4 4 4 4 4 3 3 2 1 1 0 2 2 3 3 3 3 3 4 4 3 4 4 3 3 4 4 4 4 4 4 4 3 4 5 4
1 2 2 3 3 3 4 3 2 1 2 3 4 4 4 3 4 4 3 3 2 2 1 0 1 1 2 3 3 2 2 2 3 3 3 3 3 4 4 4 4 4 4 4 4 4 5 5 4
2 3 3 3 4 3 3 4 2 3 3 3 4 4 5 4 3 4 3 3 2 2 2 1 1 1 1 2 2 2 2 3 3 3 3 2 3 3 3 4 4 5 5 4 5 6 5 6 6
Wind_Direction
303 281 264 257 243 236 241 239 251 277 330 22 23 18 20 11 34 112 117 73 94 112 122 127 123 121 117 113 108 106 103 100 97 100 102 101 100 98 96 94 91 91 90 88 86 84 82 81 78
294 279 258 241 237 237 239 220 225 222 115 70 39 8 22 64 65 103 100 70 96 111 122 128 123 120 120 117 113 110 107 104 101 98 101 102 103 102 98 96 94 92 91 90 88 85 84 83 81
279 264 250 226 230 237 243 221 161 137 104 91 71 17 10 68 85 100 93 93 94 104 115 122 124 122 119 119 117 114 111 108 104 103 100 103 103 103 101 98 96 95 92 92 90 88 85 84 82
269 233 243 241 241 243 250 271 79 137 116 86 99 101 79 46 55 74 93 95 99 102 110 120 125 125 122 118 116 117 115 112 108 105 105 104 104 103 103 99 98 98 98 95 92 90 88 86 83
246 238 228 236 243 247 257 262 253 191 153 147 157 159 104 73 72 82 95 95 99 97 105 120 125 128 125 121 117 113 115 115 113 109 108 106 106 104 103 101 99 99 101 98 94 92 91 88 83
239 238 234 236 238 232 239 258 249 212 171 148 169 202 116 87 80 90 93 85 85 94 100 115 120 127 128 124 120 116 113 113 112 112 110 108 104 107 106 103 100 100 100 100 96 94 92 88 82
247 244 246 252 249 234 232 262 254 226 197 232 217 175 133 96 82 94 93 81 77 84 94 103 117 124 128 127 123 118 114 112 112 109 110 107 103 107 108 105 103 101 100 98 98 95 92 88 83
264 269 252 250 249 249 263 267 269 267 242 345 353 167 130 117 104 98 93 88 83 81 87 93 105 118 121 126 129 123 117 113 113 112 111 109 105 106 111 107 106 106 103 100 99 98 94 90 83
265 247 247 251 256 260 279 283 277 34 55 64 50 58 81 117 118 110 105 96 96 90 85 88 93 101 114 125 128 124 120 117 115 115 117 114 106 101 109 111 111 108 106 103 101 101 97 91 83
224 238 244 268 287 288 291 295 265 156 164 159 60 66 97 116 129 136 142 146 138 126 102 88 90 99 105 117 119 119 121 123 115 113 116 108 101 100 106 118 114 111 109 105 104 103 96 88 82
226 243 255 272 292 304 298 304 292 212 213 221 212 147 133 132 142 155 163 162 155 138 123 106 93 95 96 92 108 106 107 110 109 110 109 108 103 106 107 112 111 111 109 104 104 100 92 82 78
241 251 265 273 293 292 284 286 289 289 218 34 1 147 145 153 164 176 178 169 144 137 128 103 86 92 89 88 91 91 91 93 91 95 97 97 96 97 96 102 112 110 106 99 97 94 91 88 86
239 245 260 271 275 284 292 271 274 270 311 41 51 113 148 162 169 174 166 146 136 144 141 123 91 94 99 94 93 92 85 88 92 87 87 94 93 94 97 108 101 100 104 99 90 87 84 78 75
257 251 251 255 253 258 261 261 253 242 210 208 189 165 162 168 167 156 166 166 160 157 151 134 113 96 96 94 87 88 86 89 94 90 87 87 93 94 92 86 90 99 99 97 95 93 89 83 79
251 262 258 246 243 235 254 258 237 218 199 218 222 195 170 169 162 168 190 180 177 168 148 140 130 105 105 100 96 91 89 95 90 94 97 93 93 101 100 92 83 97 99 97 95 90 92 89 86
241 241 245 227 226 225 235 251 225 188 207 224 229 222 194 183 182 185 187 167 160 151 142 137 134 122 115 108 106 102 96 92 90 100 103 102 100 106 105 94 84 102 103 103 106 107 108 101 92
228 245 251 246 227 226 227 254 225 204 218 233 231 225 216 199 200 193 184 168 158 154 150 143 136 139 133 119 111 105 98 91 88 95 96 102 105 108 108 99 91 111 107 104 117 117 112 110 99
257 262 268 262 249 254 246 253 246 231 234 245 236 221 219 213 206 178 175 163 156 153 151 150 147 146 140 130 113 101 93 91 88 87 95 105 105 107 110 107 103 116 115 114 111 114 104 109 107
285 281 280 283 285 270 258 266 267 252 242 251 255 244 232 216 173 152 154 152 144 143 150 155 154 159 155 160 161 150 139 129 105 91 104 111 112 112 106 103 109 119 125 126 123 120 117 110 110
282 284 287 293 311 285 269 271 269 250 245 243 248 246 237 175 112 111 103 125 144 156 161 161 159 162 162 166 169 162 145 134 117 114 105 104 113 116 115 99 113 125 127 126 126 125 120 123 119
279 272 281 291 306 271 272 273 251 236 235 255 268 278 301 148 56 135 129 115 130 151 170 174 170 164 162 153 141 138 124 120 123 140 132 104 114 116 117 110 112 120 126 139 139 137 129 145 131
283 314 303 292 288 267 240 276 259 238 231 238 259 282 323 350 359 45 112 118 119 172 167 167 167 172 169 160 161 156 159 159 169 160 142 115 115 112 114 117 118 122 121 135 148 135 133 143 150
296 309 291 272 265 273 248 256 266 207 246 251 250 289 7 2 3 28 56 96 108 105 160 154 153 170 171 164 165 167 165 152 138 141 139 140 119 113 111 121 126 124 126 131 133 129 130 138 144
307 307 284 257 248 253 234 221 262 235 241 252 244 271 359 355 1 18 42 64 55 65 105 153 160 170 178 167 166 172 166 153 145 149 153 151 140 106 112 128 130 128 129 140 140 135 133 134 131
328 340 321 272 228 241 236 217 238 209 71 68 352 349 17 19 7 9 24 55 70 59 58 170 161 169 178 175 172 177 173 166 163 162 158 153 151 157 174 139 126 129 136 143 138 137 143 138 141
292 271 238 264 269 291 293 241 225 113 61 51 35 20 37 32 3 350 14 46 83 115 176 196 180 177 178 182 188 180 174 174 169 161 154 162 173 180 162 146 137 139 141 143 139 143 152 142 149
297 260 264 274 286 274 243 228 218 136 42 36 32 27 20 10 2 359 14 24 37 51 230 209 195 187 186 191 196 194 181 173 169 158 148 160 170 172 151 147 149 149 143 144 148 158 162 156 158
272 310 313 249 275 270 261 249 257 279 325 24 22 12 4 4 6 10 13 14 18 13 339 259 197 196 196 197 204 206 190 179 163 154 165 169 171 153 163 164 162 159 155 153 157 161 159 159 166
198 235 245 254 262 267 277 272 0 20 16 28 11 6 355 353 350 351 350 353 359 13 13 305 214 209 205 199 205 209 196 167 155 159 169 171 165 159 173 176 170 169 171 170 167 175 171 171 173
210 232 208 220 258 249 267 269 6 68 41 34 13 357 355 354 345 345 343 346 358 9 12 346 240 214 221 211 201 207 196 173 171 174 175 177 174 169 176 175 180 184 181 177 179 183 181 183 185
Height
1497 1499 1500 1503 1505 1504 1499 1492 1486 1487 1489 1492 1493 1493 1495 1499 1503 1512 1512 1510 1510 1511 1513 1515 1517 1519 1521 1523 1525 1526 1528 1529 1531 1532 1533 1534 1535 1536 1538 1539 1540 1541 1541 1542 1543 1544 1544 1545 1546
1497 1499 1502 1502 1504 1505 1496 1488 1488 1489 1491 1493 1494 1495 1497 1501 1504 1507 1508 1509 1510 1512 1513 1515 1517 1519 1521 1523 1525 1527 1528 1530 1531 1532 1534 1535 1536 1537 1538 1540 1541 1542 1543 1544 1544 1545 1546 1547 1547
1497 1498 1501 1500 1499 1498 1492 1485 1486 1488 1491 1493 1495 1497 1499 1503 1505 1505 1507 1508 1510 1512 1513 1515 1517 1519 1521 1523 1525 1527 1528 1530 1532 1533 1534 1536 1537 1538 1539 1540 1542 1543 1544 1545 1545 1546 1547 1548 1549
1497 1500 1500 1499 1494 1488 1487 1486 1486 1488 1491 1493 1496 1499 1501 1504 1504 1505 1506 1508 1510 1512 1513 1515 1517 1519 1521 1523 1525 1527 1528 1530 1532 1533 1535 1536 1537 1538 1540 1541 1542 1543 1545 1546 1547 1547 1548 1549 1550
1497 1498 1498 1496 1490 1487 1486 1486 1487 1488 1490 1493 1496 1499 1502 1504 1503 1504 1506 1507 1509 1511 1513 1515 1517 1519 1521 1522 1524 1526 1528 1530 1532 1533 1535 1536 1538 1539 1540 1542 1543 1544 1545 1546 1547 1548 1550 1551 1552
1497 1495 1496 1493 1487 1485 1486 1486 1486 1488 1490 1493 1496 1498 1501 1503 1502 1504 1505 1507 1509 1511 1512 1514 1516 1518 1520 1522 1524 1526 1528 1529 1531 1533 1535 1536 1538 1539 1541 1542 1543 1545 1546 1547 1548 1549 1551 1552 1553
1496 1493 1491 1486 1484 1484 1485 1486 1486 1488 1490 1493 1495 1497 1499 1501 1501 1503 1505 1506 1508 1510 1512 1513 1515 1518 1520 1522 1523 1525 1527 1529 1531 1533 1534 1536 1538 1539 1541 1542 1543 1545 1546 1547 1549 1550 1551 1552 1554
1492 1491 1486 1484 1484 1483 1484 1485 1486 1488 1490 1493 1495 1496 1498 1500 1501 1502 1504 1506 1508 1509 1511 1512 1514 1516 1518 1520 1523 1524 1526 1529 1530 1532 1534 1536 1537 1539 1541 1542 1544 1545 1546 1548 1549 1550 1552 1553 1554
1491 1492 1486 1483 1483 1483 1484 1485 1487 1488 1490 1492 1495 1496 1497 1498 1499 1501 1503 1505 1507 1508 1509 1511 1513 1515 1517 1519 1521 1523 1525 1527 1529 1531 1533 1535 1537 1538 1540 1542 1543 1545 1546 1548 1549 1551 1552 1554 1555
1489 1488 1483 1484 1483 1483 1484 1486 1487 1488 1490 1492 1494 1495 1496 1497 1498 1500 1501 1502 1504 1506 1508 1509 1511 1513 1515 1517 1519 1521 1524 1526 1528 1530 1532 1534 1536 1537 1539 1541 1543 1545 1546 1547 1549 1551 1552 1554 1555
1484 1484 1483 1484 1485 1485 1485 1487 1488 1488 1490 1492 1493 1494 1495 1496 1497 1498 1499 1500 1502 1504 1506 1508 1509 1511 1513 1515 1517 1519 1522 1524 1526 1529 1531 1533 1535 1536 1538 1540 1542 1544 1545 1547 1548 1550 1552 1553 1555
1483 1482 1484 1485 1485 1486 1486 1487 1487 1488 1490 1492 1492 1493 1493 1494 1495 1497 1498 1499 1501 1502 1504 1506 1508 1509 1511 1513 1515 1517 1519 1522 1525 1527 1529 1531 1533 1535 1537 1539 1540 1542 1544 1546 1548 1549 1551 1553 1555
1481 1482 1483 1484 1485 1485 1486 1486 1487 1488 1490 1491 1491 1492 1492 1493 1494 1495 1497 1498 1499 1500 1502 1503 1505 1507 1509 1511 1513 1515 1517 1520 1522 1525 1527 1529 1531 1533 1535 1537 1539 1541 1543 1545 1547 1549 1550 1552 1554
1480 1481 1482 1483 1484 1485 1485 1485 1486 1486 1489 1489 1490 1490 1491 1491 1492 1493 1495 1495 1496 1498 1499 1501 1503 1505 1507 1509 1511 1513 1515 1517 1520 1522 1525 1527 1529 1531 1533 1535 1537 1539 1541 1543 1545 1547 1549 1551 1553
1481 1481 1481 1481 1481 1482 1484 1483 1482 1485 1487 1487 1488 1488 1489 1489 1490 1491 1492 1493 1494 1495 1497 1498 1500 1503 1505 1507 1509 1511 1513 1515 1517 1519 1522 1525 1527 1529 1531 1533 1535 1538 1540 1542 1544 1546 1548 1550 1552
1479 1480 1480 1477 1479 1480 1486 1481 1480 1483 1484 1485 1485 1486 1486 1487 1488 1489 1490 1491 1492 1493 1495 1496 1498 1500 1502 1504 1506 1508 1510 1512 1514 1517 1519 1522 1524 1526 1529 1531 1533 1536 1538 1540 1542 1544 1546 1548 1550
1479 1479 1475 1476 1476 1477 1481 1479 1479 1480 1481 1482 1483 1483 1484 1484 1485 1486 1487 1488 1489 1491 1492 1494 1495 1497 1499 1501 1504 1506 1507 1510 1512 1514 1516 1519 1521 1523 1526 1529 1531 1533 1536 1538 1540 1542 1544 1546 1548
1480 1476 1472 1474 1475 1476 1478 1476 1477 1479 1478 1479 1480 1480 1481 1482 1483 1484 1484 1485 1487 1488 1489 1491 1493 1495 1497 1499 1501 1502 1505 1507 1509 1511 1513 1516 1518 1521 1523 1526 1528 1531 1533 1536 1538 1540 1542 1545 1547
1478 1476 1475 1474 1475 1477 1477 1475 1475 1476 1476 1476 1477 1477 1478 1479 1481 1481 1482 1483 1484 1485 1486 1488 1489 1491 1493 1495 1497 1499 1501 1503 1506 1509 1511 1513 1515 1517 1520 1522 1525 1527 1530 1533 1535 1538 1540 1542 1545
1477 1478 1477 1475 1475 1477 1477 1474 1473 1473 1474 1475 1475 1475 1476 1477 1478 1478 1479 1480 1481 1482 1483 1484 1486 1488 1490 1492 1494 1496 1499 1501 1503 1506 1508 1509 1511 1514 1517 1519 1522 1524 1527 1530 1533 1535 1537 1540 1542
1478 1479 1479 1479 1478 1477 1478 1474 1471 1470 1472 1472 1473 1473 1474 1475 1475 1476 1476 1477 1478 1479 1480 1481 1483 1485 1487 1489 1492 1494 1496 1498 1501 1502 1504 1506 1508 1511 1513 1516 1519 1522 1524 1526 1529 1532 1534 1537 1539
1480 1479 1478 1479 1481 1480 1477 1480 1469 1469 1470 1470 1471 1472 1473 1473 1474 1474 1474 1475 1476 1477 1478 1479 1481 1482 1484 1486 1488 1489 1491 1492 1495 1498 1500 1503 1505 1508 1510 1513 1516 1519 1521 1524 1527 1529 1532 1534 1536
1482 1480 1479 1478 1479 1482 1478 1482 1473 1469 1470 1470 1470 1471 1471 1472 1472 1472 1473 1473 1473 1474 1475 1476 1478 1479 1481 1483 1485 1486 1488 1490 1493 1495 1498 1500 1503 1505 1507 1510 1513 1516 1518 1521 1524 1526 1529 1531 1534
1483 1480 1478 1477 1479 1484 1475 1478 1473 1470 1468 1468 1469 1469 1470 1470 1471 1471 1471 1471 1472 1472 1473 1473 1475 1476 1478 1480 1482 1483 1485 1487 1489 1491 1494 1497 1499 1502 1504 1507 1509 1512 1515 1517 1520 1523 1526 1528 1530
1485 1487 1487 1483 1483 1478 1470 1473 1474 1469 1468 1468 1468 1468 1469 1469 1469 1469 1469 1469 1469 1470 1470 1471 1472 1473 1475 1477 1479 1481 1483 1485 1486 1488 1490 1493 1495 1498 1500 1503 1505 1508 1511 1514 1517 1519 1522 1524 1527
1489 1489 1494 1492 1481 1473 1474 1473 1472 1468 1468 1467 1468 1468 1468 1468 1468 1468 1468 1468 1468 1467 1468 1468 1469 1470 1472 1474 1476 1478 1480 1482 1483 1485 1487 1490 1492 1494 1497 1499 1502 1505 1508 1510 1513 1516 1518 1521 1524
1489 1489 1488 1491 1486 1484 1473 1470 1470 1468 1468 1468 1468 1467 1467 1468 1468 1467 1467 1466 1466 1466 1466 1466 1467 1468 1469 1471 1473 1475 1477 1478 1480 1482 1484 1487 1489 1492 1494 1496 1499 1502 1504 1507 1509 1512 1515 1518 1520
1490 1489 1492 1492 1490 1482 1469 1467 1470 1470 1468 1469 1469 1469 1468 1468 1467 1467 1466 1466 1465 1464 1464 1465 1465 1465 1466 1468 1470 1471 1473 1475 1476 1479 1481 1483 1486 1488 1491 1493 1496 1498 1501 1503 1505 1508 1511 1513 1515
1491 1491 1491 1490 1488 1486 1478 1476 1470 1470 1470 1470 1470 1470 1469 1468 1467 1466 1465 1465 1464 1463 1462 1462 1463 1463 1464 1465 1467 1468 1469 1471 1473 1475 1478 1480 1482 1484 1487 1489 1492 1495 1497 1499 1501 1504 1506 1508 1511
1488 1490 1492 1496 1491 1486 1484 1482 1471 1471 1470 1470 1471 1470 1469 1468 1467 1466 1465 1464 1463 1461 1460 1460 1461 1461 1462 1462 1463 1464 1466 1468 1470 1472 1474 1476 1478 1480 1483 1485 1488 1490 1492 1495 1497 1499 1501 1504 1506